FW3671 Weather Reports


Display with metric or nautical units.
time (UTC)temp
F
wind
direction
speed
MPH
gust
MPH
rain 1hr
in
rain 24hr
in
rain mn
in
humidity
%
barometer
mb
20260502194500 72 128 8.0 13.0 0.00 0.00 0.00 18 1020.8
20260502193956 73 84 4.0 8.0 0.00 0.00 0.00 18 1021.0
20260502193454 72 160 6.0 16.0 0.00 0.00 0.00 16 1021.1
20260502192949 71 240 3.0 11.0 0.00 0.00 0.00 15 1020.8
20260502192446 71 165 7.0 13.0 0.00 0.00 0.00 15 1021.1
20260502191943 71 203 13.0 14.0 0.00 0.00 0.00 19 1021.1
20260502191441 70 132 12.0 13.0 0.00 0.00 0.00 18 1021.1
20260502190938 70 206 6.0 15.0 0.00 0.00 0.00 19 1021.3
20260502190435 71 137 11.0 14.0 0.00 0.00 0.00 16 1021.3
20260502185932 71 165 6.0 10.0 0.00 0.00 0.00 19 1021.4
20260502185427 70 160 9.0 14.0 0.00 0.00 0.00 17 1021.4
20260502184925 71 152 8.0 12.0 0.00 0.00 0.00 19 1021.5
20260502184420 71 209 16.0 17.0 0.00 0.00 0.00 19 1021.3
20260502183917 71 232 2.0 16.0 0.00 0.00 0.00 17 1021.8
20260502183413 70 208 8.0 16.0 0.00 0.00 0.00 18 1021.8
20260502182908 70 218 8.0 19.0 0.00 0.00 0.00 18 1021.9
20260502182404 70 225 8.0 12.0 0.00 0.00 0.00 21 1021.7
20260502181900 70 132 2.0 6.0 0.00 0.00 0.00 24 1021.7
20260502181359 69 166 7.0 15.0 0.00 0.00 0.00 19 1021.7
20260502180857 69 176 5.0 20.0 0.00 0.00 0.00 19 1021.8
20260502180354 70 175 11.0 12.0 0.00 0.00 0.00 21 1021.8
20260502170318 69 147 11.0 15.0 0.00 0.00 0.00 22 1022.0
20260502164306 69 138 11.0 12.0 0.00 0.00 0.00 24 1022.3
20260502163801 68 159 2.0 8.0 0.00 0.00 0.00 25 1022.3
20260502163258 68 183 6.0 11.0 0.00 0.00 0.00 22 1022.1
20260502162755 67 154 2.0 13.0 0.00 0.00 0.00 28 1022.0
20260502162252 68 143 6.0 10.0 0.00 0.00 0.00 24 1022.1
20260502161749 67 189 5.0 11.0 0.00 0.00 0.00 26 1022.0
20260502161246 68 353 1.0 2.0 0.00 0.00 0.00 26 1022.1
20260502160744 67 157 0.0 8.0 0.00 0.00 0.00 28 1022.1
20260502160243 67 115 3.0 3.0 0.00 0.00 0.00 28 1022.0
20260502152211 58 331 2.0 3.0 0.00 0.00 0.00 33 1022.2
20260502151709 57 330 1.0 2.0 0.00 0.00 0.00 32 1022.2
20260502151206 56 260 2.0 4.0 0.00 0.00 0.00 32 1022.2
20260502150703 55 289 4.0 5.0 0.00 0.00 0.00 32 1022.1
20260502150159 55 294 2.0 4.0 0.00 0.00 0.00 33 1022.1
20260502140123 49 235 0.0 2.0 0.00 0.00 0.00 40 1022.1
20260502130548 50 112 6.0 8.0 0.00 0.00 0.00 34 1021.5
20260502123531 48 107 5.0 6.0 0.00 0.00 0.00 36 1021.7
20260502123028 47 88 5.0 6.0 0.00 0.00 0.00 39 1021.5
20260502122524 47 139 0.0 4.0 0.00 0.00 0.00 40 1021.7
20260502122022 48 218 4.0 4.0 0.00 0.00 0.00 39 1021.7
20260502121519 48 122 1.0 3.0 0.00 0.00 0.00 37 1021.5
20260502121017 48 184 5.0 7.0 0.00 0.00 0.00 38 1021.3
20260502120513 48 92 4.0 5.0 0.00 0.00 0.00 37 1021.4
20260502115508 48 115 2.0 6.0 0.00 0.00 0.00 36 1021.5
20260502115003 48 123 4.0 6.0 0.00 0.00 0.00 38 1021.5
20260502114500 48 127 2.0 5.0 0.00 0.00 0.00 39 1021.4
20260502113957 48 102 5.0 9.0 0.00 0.00 0.00 37 1021.3
20260502113454 46 157 4.0 12.0 0.00 0.00 0.00 48 1021.4
20260502112953 47 95 2.0 6.0 0.00 0.00 0.00 47 1021.5
20260502112450 48 128 2.0 3.0 0.00 0.00 0.00 38 1021.2
20260502111948 48 217 5.0 8.0 0.00 0.00 0.00 38 1021.5
20260502111445 48 146 1.0 6.0 0.00 0.00 0.00 37 1021.2
20260502110942 49 187 3.0 8.0 0.00 0.00 0.00 39 1021.4
20260502110440 49 160 2.0 4.0 0.00 0.00 0.00 36 1021.5
20260502105937 49 109 6.0 6.0 0.00 0.00 0.00 35 1021.4
20260502105434 49 126 4.0 8.0 0.00 0.00 0.00 35 1021.5
20260502104932 49 145 7.0 8.0 0.00 0.00 0.00 36 1021.3
20260502104429 49 65 0.0 7.0 0.00 0.00 0.00 36 1021.3
20260502103926 50 195 3.0 5.0 0.00 0.00 0.00 36 1021.2
20260502103424 50 89 2.0 6.0 0.00 0.00 0.00 35 1021.5
20260502102920 51 112 6.0 9.0 0.00 0.00 0.00 35 1021.3
20260502102417 50 101 6.0 8.0 0.00 0.00 0.00 36 1021.2
20260502101915 51 106 4.0 4.0 0.00 0.00 0.00 36 1021.3
20260502101413 51 105 7.0 8.0 0.00 0.00 0.00 35 1021.3
20260502100911 51 99 7.0 11.0 0.00 0.00 0.00 34 1021.1
20260502100410 51 98 6.0 12.0 0.00 0.00 0.00 34 1021.2
20260502091343 51 110 7.0 12.0 0.00 0.00 0.00 34 1021.1
20260502090841 50 116 6.0 15.0 0.00 0.00 0.00 34 1021.3
20260502090338 51 120 4.0 11.0 0.00 0.00 0.00 37 1021.3
20260502071233 51 127 8.0 10.0 0.00 0.00 0.00 39 1021.5
20260502070731 51 151 9.0 11.0 0.00 0.00 0.00 39 1021.8
20260502070228 50 127 10.0 15.0 0.00 0.00 0.00 37 1021.7
20260502065727 51 129 16.0 19.0 0.00 0.00 0.00 36 1021.5
20260502065224 51 123 13.0 15.0 0.00 0.00 0.00 38 1021.7
20260502064723 51 132 10.0 12.0 0.00 0.00 0.00 38 1021.7
20260502064220 51 121 6.0 11.0 0.00 0.00 0.00 37 1021.7
20260502063717 51 128 15.0 17.0 0.00 0.00 0.00 37 1021.9
20260502063215 51 129 12.0 16.0 0.00 0.00 0.00 36 1021.5
20260502062712 51 131 9.0 13.0 0.00 0.00 0.00 37 1021.7
20260502062210 51 130 10.0 15.0 0.00 0.00 0.00 37 1021.4
20260502061708 51 133 10.0 16.0 0.00 0.00 0.00 37 1021.4
20260502061205 51 129 11.0 14.0 0.00 0.00 0.00 37 1021.5
20260502060700 51 134 9.0 12.0 0.00 0.00 0.00 37 1021.7
20260502060157 51 120 10.0 16.0 0.00 0.00 0.00 36 1021.5
20260502055655 51 127 7.0 11.0 0.00 0.00 0.00 37 1021.4
20260502055152 51 133 8.0 13.0 0.00 0.00 0.00 38 1021.3
20260502054652 51 128 7.0 8.0 0.00 0.00 0.00 39 1021.3
20260502054148 51 132 6.0 7.0 0.00 0.00 0.00 39 1021.3
20260502053645 51 142 4.0 5.0 0.00 0.00 0.00 39 1021.5
20260502053142 51 149 4.0 4.0 0.00 0.00 0.00 38 1021.3
20260502052641 52 178 3.0 3.0 0.00 0.00 0.00 36 1021.2
20260502052138 52 150 4.0 8.0 0.00 0.00 0.00 36 1021.5
20260502051637 52 126 6.0 10.0 0.00 0.00 0.00 35 1021.7
20260502051134 52 138 3.0 4.0 0.00 0.00 0.00 36 1021.4
20260502050630 53 106 2.0 4.0 0.00 0.00 0.00 36 1021.3
20260502050127 53 117 2.0 5.0 0.00 0.00 0.00 36 1021.3
20260502045623 53 167 2.0 3.0 0.00 0.00 0.00 35 1021.3
20260502045121 53 250 2.0 3.0 0.00 0.00 0.00 33 1021.3
20260502044617 53 217 1.0 2.0 0.00 0.00 0.00 35 1021.3
20260502044114 53 222 0.0 2.0 0.00 0.00 0.00 34 1021.3
20260502043612 53 159 2.0 4.0 0.00 0.00 0.00 35 1021.3
20260502043109 53 238 1.0 3.0 0.00 0.00 0.00 33 1021.3
20260502042608 53 136 3.0 4.0 0.00 0.00 0.00 35 1021.0
20260502042106 54 194 1.0 2.0 0.00 0.00 0.00 34 1021.0
20260502041604 54 231 4.0 4.0 0.00 0.00 0.00 35 1021.1
20260502041101 53 135 0.0 4.0 0.00 0.00 0.00 34 1021.1
20260502040557 53 263 2.0 4.0 0.00 0.00 0.00 36 1021.1
20260502040055 53 242 3.0 4.0 0.00 0.00 0.00 38 1021.2
20260502035550 53 250 1.0 3.0 0.00 0.00 0.00 36 1021.0
20260502035048 54 279 1.0 2.0 0.00 0.00 0.00 35 1020.7
20260502034546 54 172 2.0 3.0 0.00 0.00 0.00 35 1020.6
20260502034044 54 187 0.0 2.0 0.00 0.00 0.00 36 1020.8
20260502033542 54 258 2.0 4.0 0.00 0.00 0.00 34 1020.7
20260502033039 55 306 2.0 6.0 0.00 0.00 0.00 33 1020.4
20260502032535 55 299 4.0 6.0 0.00 0.00 0.00 32 1020.5
20260502032031 55 271 7.0 10.0 0.00 0.00 0.00 33 1020.5
20260502031530 54 298 5.0 9.0 0.00 0.00 0.00 33 1020.5
20260502031027 54 254 5.0 7.0 0.00 0.00 0.00 34 1020.3
20260502030526 55 226 3.0 4.0 0.00 0.00 0.00 34 1020.1
20260502030023 55 99 2.0 4.0 0.00 0.00 0.00 35 1020.3
20260502025520 56 318 4.0 4.0 0.00 0.00 0.00 33 1019.9
20260502025019 56 359 2.0 6.0 0.00 0.00 0.00 32 1020.1
20260502024515 57 80 3.0 5.0 0.00 0.00 0.00 31 1020.1
20260502024014 57 356 4.0 6.0 0.00 0.00 0.00 31 1019.8
20260502023511 57 0 2.0 6.0 0.00 0.00 0.00 31 1019.9
20260502023008 58 335 6.0 12.0 0.00 0.00 0.00 30 1020.0
20260502022505 58 337 7.0 12.0 0.00 0.00 0.00 29 1020.0
20260502022002 59 328 11.0 12.0 0.00 0.00 0.00 30 1019.8
20260502021459 60 332 4.0 17.0 0.00 0.00 0.00 29 1019.9
20260502020956 61 348 9.0 16.0 0.00 0.00 0.00 28 1019.8
20260502020454 62 345 6.0 12.0 0.00 0.00 0.00 28 1019.8
20260502015950 62 341 10.0 13.0 0.00 0.00 0.00 28 1019.7
20260502015448 62 338 11.0 15.0 0.00 0.00 0.00 27 1019.6
20260502014944 63 344 13.0 14.0 0.00 0.00 0.00 27 1019.7
20260502014442 63 338 9.0 13.0 0.00 0.00 0.00 27 1019.6
20260502013938 64 329 12.0 19.0 0.00 0.00 0.00 26 1019.7
20260502013434 64 294 8.0 22.0 0.00 0.00 0.00 26 1019.5
20260502012930 65 304 5.0 16.0 0.00 0.00 0.00 26 1019.7
20260502012428 65 308 7.0 16.0 0.00 0.00 0.00 26 1019.7
20260502011925 65 326 13.0 18.0 0.00 0.00 0.00 26 1019.3
20260502011422 66 340 11.0 17.0 0.00 0.00 0.00 25 1019.3
20260502010919 66 334 11.0 15.0 0.00 0.00 0.00 25 1019.5
20260502010415 66 16 11.0 16.0 0.00 0.00 0.00 25 1019.2
20260502005912 66 319 9.0 15.0 0.00 0.00 0.00 26 1019.3
20260502005410 66 352 8.0 19.0 0.00 0.00 0.00 25 1019.3
20260502004908 66 308 17.0 18.0 0.00 0.00 0.00 25 1019.5
20260502004403 66 294 12.0 23.0 0.00 0.00 0.00 25 1019.6
20260502003900 67 321 14.0 17.0 0.00 0.00 0.00 24 1019.5
20260502003358 67 359 7.0 17.0 0.00 0.00 0.00 24 1019.6
20260502002854 67 0 10.0 17.0 0.00 0.00 0.00 25 1019.3
20260502002351 67 356 8.0 18.0 0.00 0.00 0.00 25 1019.3
20260502001848 66 346 13.0 19.0 0.00 0.00 0.00 25 1019.5
20260502001346 67 331 13.0 26.0 0.00 0.00 0.00 24 1019.5
20260502000843 67 346 8.0 17.0 0.00 0.00 0.00 24 1019.5
20260502000342 67 325 9.0 22.0 0.00 0.00 0.00 24 1019.6
20260501235837 68 339 11.0 19.0 0.00 0.00 0.00 25 1019.5
20260501235333 67 345 6.0 17.0 0.00 0.00 0.00 25 1019.5
20260501234828 67 323 8.0 23.0 0.00 0.00 0.00 24 1019.5
20260501234326 66 302 14.0 22.0 0.00 0.00 0.00 24 1019.6
20260501233825 67 351 8.0 21.0 0.00 0.00 0.00 24 1019.6
20260501233321 68 5 6.0 20.0 0.00 0.00 0.00 23 1019.5
20260501232817 68 341 9.0 15.0 0.00 0.00 0.00 25 1019.3
20260501232314 67 355 13.0 19.0 0.00 0.00 0.00 24 1019.6
20260501231812 67 340 4.0 16.0 0.00 0.00 0.00 25 1019.6
20260501231310 67 19 6.0 18.0 0.00 0.00 0.00 24 1019.6
20260501230808 67 8 11.0 17.0 0.00 0.00 0.00 24 1019.7
20260501230306 67 13 15.0 19.0 0.00 0.00 0.00 24 1019.6
20260501225803 68 9 12.0 19.0 0.00 0.00 0.00 24 1019.5
20260501225301 68 6 8.0 19.0 0.00 0.00 0.00 24 1019.7
20260501224757 68 343 9.0 15.0 0.00 0.00 0.00 23 1019.5
20260501224254 67 0 8.0 21.0 0.00 0.00 0.00 23 1019.5
20260501223750 67 277 4.0 12.0 0.00 0.00 0.00 27 1019.8
20260501223247 66 354 9.0 16.0 0.00 0.00 0.00 24 1019.9
20260501222743 66 337 12.0 19.0 0.00 0.00 0.00 24 1020.0
20260501222240 66 295 6.0 16.0 0.00 0.00 0.00 24 1019.8
20260501221737 65 350 13.0 18.0 0.00 0.00 0.00 25 1019.9
20260501221234 64 314 7.0 13.0 0.00 0.00 0.00 27 1019.9
20260501220732 64 27 6.0 16.0 0.00 0.00 0.00 25 1020.3
20260501220229 65 0 13.0 19.0 0.00 0.00 0.00 24 1020.1
20260501215726 66 346 3.0 15.0 0.00 0.00 0.00 24 1020.0
20260501215221 67 339 7.0 10.0 0.00 0.00 0.00 25 1020.1
20260501214716 66 351 6.0 22.0 0.00 0.00 0.00 22 1020.1
20260501214213 68 307 6.0 8.0 0.00 0.00 0.00 23 1020.3
20260501213709 67 214 3.0 10.0 0.00 0.00 0.00 23 1020.1
20260501213205 67 344 6.0 15.0 0.00 0.00 0.00 22 1020.4
20260501212702 67 6 2.0 14.0 0.00 0.00 0.00 23 1020.3
20260501212159 66 275 11.0 15.0 0.00 0.00 0.00 23 1020.5
20260501211655 67 0 6.0 10.0 0.00 0.00 0.00 25 1020.3
20260501211153 67 344 8.0 17.0 0.00 0.00 0.00 23 1020.3
20260501210650 68 318 7.0 15.0 0.00 0.00 0.00 23 1020.3
20260501210146 67 292 8.0 9.0 0.00 0.00 0.00 24 1020.4
20260501205642 66 240 5.0 9.0 0.00 0.00 0.00 24 1020.7
20260501205140 66 294 11.0 16.0 0.00 0.00 0.00 23 1020.5
20260501204636 67 268 8.0 14.0 0.00 0.00 0.00 23 1020.6
20260501204132 66 248 4.0 13.0 0.00 0.00 0.00 22 1020.5
20260501203629 66 303 8.0 10.0 0.00 0.00 0.00 25 1020.6
20260501203127 65 277 11.0 13.0 0.00 0.00 0.00 23 1020.5
20260501202624 65 275 11.0 19.0 0.00 0.00 0.00 22 1020.5
20260501202120 65 16 5.0 10.0 0.00 0.00 0.00 24 1020.7
20260501201618 65 24 5.0 6.0 0.00 0.00 0.00 24 1020.6
20260501201114 64 348 9.0 15.0 0.00 0.00 0.00 24 1020.5
20260501200611 64 336 8.0 19.0 0.00 0.00 0.00 23 1020.7
20260501200109 66 324 11.0 14.0 0.00 0.00 0.00 23 1020.6
20260501195606 65 278 8.0 13.0 0.00 0.00 0.00 25 1020.7
20260501195101 66 281 9.0 13.0 0.00 0.00 0.00 22 1020.5